BHS374 MYNN-MYEF

Flight info

Callsign BHS374
Flight time 0h 34m
Altitude 13000
Route DCT BOSAR DCT
Aircraft AT45/M-SDFGIRY/S

Departure

Time 2026-05-05 03:33
Airport Lynden Pindling International Airport (MYNN)

Arrival

Time 2026-05-05 04:08
Airport Exuma International Airport (MYEF)
Time Latitude Longitude Altitude Speed Heading
2026-05-05 03:21 25.04712 -77.46543 22 ft 0 kts 350°
2026-05-05 03:28 25.04708 -77.46542 22 ft 2 kts 350°
2026-05-05 03:28 25.04693 -77.46539 22 ft 3 kts 350°
2026-05-05 03:28 25.04680 -77.46537 22 ft 3 kts 350°
2026-05-05 03:29 25.04674 -77.46535 22 ft 0 kts 350°
2026-05-05 03:30 25.04689 -77.46603 22 ft 13 kts 238°
2026-05-05 03:30 25.04631 -77.46670 22 ft 10 kts 259°
2026-05-05 03:30 25.04671 -77.46738 22 ft 9 kts 313°
2026-05-05 03:30 25.04703 -77.46775 22 ft 13 kts 313°
2026-05-05 03:31 25.04830 -77.46924 22 ft 36 kts 312°
2026-05-05 03:31 25.05004 -77.47137 22 ft 36 kts 310°
2026-05-05 03:31 25.05143 -77.47292 22 ft 22 kts 314°
2026-05-05 03:31 25.05248 -77.47414 22 ft 23 kts 311°
2026-05-05 03:32 25.05249 -77.47526 22 ft 10 kts 236°
2026-05-05 03:32 25.05245 -77.47532 22 ft 0 kts 230°
2026-05-05 03:32 25.05236 -77.47543 22 ft 14 kts 224°
2026-05-05 03:32 25.05176 -77.47557 22 ft 17 kts 133°
2026-05-05 03:33 25.04825 -77.47163 26 ft 119 kts 135°
2026-05-05 03:33 25.04163 -77.46430 416 ft 150 kts 134°
2026-05-05 03:33 25.03380 -77.45542 941 ft 169 kts 134°
2026-05-05 03:33 25.02569 -77.44583 1451 ft 176 kts 130°
2026-05-05 03:34 25.01816 -77.43503 1974 ft 179 kts 126°
2026-05-05 03:34 25.01082 -77.42372 2471 ft 182 kts 124°
2026-05-05 03:34 25.00349 -77.41222 2974 ft 184 kts 124°
2026-05-05 03:34 24.99580 -77.40014 3392 ft 204 kts 124°
2026-05-05 03:35 24.98737 -77.38691 3932 ft 218 kts 125°
2026-05-05 03:35 24.97844 -77.37298 4441 ft 227 kts 126°
2026-05-05 03:35 24.96915 -77.35859 4946 ft 233 kts 126°
2026-05-05 03:35 24.95964 -77.34390 5449 ft 237 kts 126°
2026-05-05 03:36 24.94998 -77.32900 5952 ft 240 kts 127°
2026-05-05 03:36 24.94034 -77.31415 6445 ft 243 kts 127°
2026-05-05 03:36 24.93044 -77.29894 6948 ft 245 kts 127°
2026-05-05 03:36 24.92048 -77.28364 7448 ft 246 kts 128°
2026-05-05 03:37 24.91045 -77.26823 7949 ft 248 kts 128°
2026-05-05 03:37 24.90038 -77.25276 8451 ft 249 kts 128°
2026-05-05 03:37 24.89024 -77.23718 8952 ft 250 kts 128°
2026-05-05 03:37 24.88005 -77.22154 9453 ft 252 kts 128°
2026-05-05 03:38 24.86982 -77.20582 9954 ft 253 kts 128°
2026-05-05 03:38 24.85955 -77.19004 10454 ft 254 kts 129°
2026-05-05 03:38 24.84932 -77.17433 10949 ft 256 kts 129°
2026-05-05 03:38 24.83891 -77.15837 11450 ft 257 kts 129°
2026-05-05 03:39 24.82843 -77.14228 11951 ft 259 kts 130°
2026-05-05 03:39 24.81790 -77.12614 12452 ft 260 kts 130°
2026-05-05 03:39 24.80727 -77.10987 12883 ft 266 kts 130°
2026-05-05 03:39 24.79619 -77.09300 12979 ft 274 kts 130°
2026-05-05 03:40 24.78498 -77.07589 12997 ft 277 kts 130°
2026-05-05 03:40 24.77365 -77.05860 13000 ft 279 kts 130°
2026-05-05 03:40 24.76228 -77.04122 13001 ft 280 kts 130°
2026-05-05 03:40 24.75090 -77.02382 13001 ft 280 kts 130°
2026-05-05 03:41 24.73950 -77.00640 13000 ft 280 kts 130°
2026-05-05 03:41 24.72829 -76.98925 13000 ft 280 kts 130°
2026-05-05 03:41 24.71688 -76.97181 13001 ft 280 kts 130°
2026-05-05 03:41 24.70551 -76.95444 13001 ft 280 kts 130°
2026-05-05 03:42 24.69409 -76.93699 13001 ft 280 kts 130°
2026-05-05 03:42 24.68271 -76.91963 13001 ft 280 kts 130°
2026-05-05 03:42 24.67131 -76.90223 13001 ft 280 kts 130°
2026-05-05 03:42 24.65990 -76.88483 13001 ft 280 kts 129°
2026-05-05 03:43 24.64781 -76.86816 13005 ft 278 kts 135°
2026-05-05 03:43 24.63472 -76.85290 13004 ft 277 kts 139°
2026-05-05 03:43 24.62082 -76.83821 13002 ft 276 kts 141°
2026-05-05 03:43 24.60659 -76.82401 13002 ft 276 kts 143°
2026-05-05 03:44 24.59213 -76.81007 13002 ft 276 kts 143°
2026-05-05 03:44 24.57757 -76.79633 13003 ft 275 kts 144°
2026-05-05 03:44 24.56298 -76.78273 13002 ft 275 kts 144°
2026-05-05 03:44 24.54850 -76.76934 13002 ft 275 kts 144°
2026-05-05 03:45 24.53382 -76.75583 13002 ft 275 kts 144°
2026-05-05 03:45 24.51910 -76.74232 13002 ft 275 kts 145°
2026-05-05 03:45 24.50420 -76.72868 13003 ft 275 kts 145°
2026-05-05 03:45 24.49385 -76.71922 13003 ft 275 kts 145°
2026-05-05 03:46 24.47909 -76.70575 13003 ft 275 kts 144°
2026-05-05 03:46 24.46437 -76.69231 13003 ft 275 kts 144°
2026-05-05 03:46 24.44961 -76.67885 13003 ft 275 kts 144°
2026-05-05 03:46 24.43489 -76.66543 13003 ft 275 kts 144°
2026-05-05 03:47 24.42010 -76.65196 13003 ft 276 kts 144°
2026-05-05 03:47 24.40535 -76.63852 13004 ft 276 kts 144°
2026-05-05 03:47 24.39059 -76.62508 13005 ft 276 kts 144°
2026-05-05 03:47 24.37579 -76.61162 13003 ft 276 kts 144°
2026-05-05 03:48 24.36123 -76.59838 13005 ft 276 kts 144°
2026-05-05 03:48 24.34647 -76.58495 13005 ft 276 kts 144°
2026-05-05 03:48 24.33170 -76.57152 13004 ft 276 kts 144°
2026-05-05 03:48 24.31693 -76.55810 13005 ft 276 kts 144°
2026-05-05 03:49 24.30215 -76.54466 13005 ft 276 kts 144°
2026-05-05 03:49 24.28737 -76.53123 13007 ft 275 kts 144°
2026-05-05 03:49 24.27257 -76.51779 12967 ft 277 kts 144°
2026-05-05 03:49 24.25745 -76.50411 12662 ft 286 kts 144°
2026-05-05 03:50 24.24198 -76.49012 12365 ft 289 kts 144°
2026-05-05 03:50 24.22655 -76.47616 12067 ft 291 kts 143°
2026-05-05 03:50 24.21090 -76.46198 11766 ft 291 kts 143°
2026-05-05 03:50 24.19534 -76.44788 11466 ft 290 kts 143°
2026-05-05 03:51 24.17978 -76.43377 11165 ft 289 kts 143°
2026-05-05 03:51 24.16429 -76.41972 10864 ft 289 kts 143°
2026-05-05 03:51 24.14903 -76.40589 10567 ft 287 kts 143°
2026-05-05 03:51 24.13365 -76.39195 10267 ft 286 kts 143°
2026-05-05 03:52 24.11834 -76.37808 9967 ft 285 kts 143°
2026-05-05 03:52 24.10306 -76.36423 9665 ft 284 kts 143°
2026-05-05 03:52 24.08783 -76.35045 9365 ft 283 kts 143°
2026-05-05 03:52 24.07265 -76.33672 9064 ft 282 kts 143°
2026-05-05 03:53 24.05754 -76.32305 8763 ft 281 kts 143°
2026-05-05 03:53 24.04268 -76.30963 8467 ft 280 kts 143°
2026-05-05 03:53 24.02767 -76.29608 8166 ft 279 kts 143°
2026-05-05 03:53 24.01271 -76.28257 7864 ft 277 kts 143°
2026-05-05 03:54 23.99787 -76.26918 7565 ft 276 kts 143°
2026-05-05 03:54 23.98237 -76.25699 7264 ft 273 kts 153°
2026-05-05 03:54 23.96511 -76.24871 6993 ft 269 kts 162°
2026-05-05 03:54 23.94742 -76.24219 6696 ft 268 kts 165°
2026-05-05 03:55 23.92987 -76.23625 6399 ft 267 kts 165°
2026-05-05 03:55 23.91211 -76.23025 6099 ft 267 kts 165°
2026-05-05 03:55 23.89444 -76.22406 5798 ft 266 kts 164°
2026-05-05 03:55 23.87689 -76.21762 5497 ft 265 kts 162°
2026-05-05 03:56 23.85948 -76.21088 5199 ft 265 kts 161°
2026-05-05 03:56 23.84221 -76.20380 4895 ft 264 kts 160°
2026-05-05 03:56 23.82516 -76.19639 4596 ft 262 kts 159°
2026-05-05 03:56 23.80870 -76.18880 4295 ft 253 kts 157°
2026-05-05 03:57 23.79276 -76.18099 3993 ft 249 kts 155°
2026-05-05 03:57 23.77730 -76.17295 3773 ft 234 kts 154°
2026-05-05 03:57 23.76381 -76.16548 3477 ft 214 kts 153°
2026-05-05 03:57 23.75096 -76.15793 3183 ft 207 kts 151°
2026-05-05 03:58 23.73856 -76.15023 2881 ft 203 kts 150°
2026-05-05 03:58 23.72646 -76.14232 2580 ft 201 kts 148°
2026-05-05 03:58 23.71473 -76.13422 2404 ft 196 kts 146°
2026-05-05 03:58 23.70354 -76.12603 2317 ft 192 kts 144°
2026-05-05 03:59 23.69278 -76.11767 2308 ft 188 kts 143°
2026-05-05 03:59 23.68254 -76.10878 2303 ft 188 kts 138°
2026-05-05 03:59 23.67334 -76.09868 2301 ft 187 kts 131°
2026-05-05 03:59 23.66530 -76.08757 2299 ft 186 kts 125°
2026-05-05 04:00 23.65816 -76.07579 2105 ft 192 kts 121°
2026-05-05 04:00 23.65134 -76.06313 1878 ft 192 kts 119°
2026-05-05 04:00 23.64498 -76.05041 1754 ft 189 kts 117°
2026-05-05 04:00 23.63967 -76.03942 1754 ft 136 kts 117°
2026-05-05 04:01 23.63603 -76.03172 1703 ft 107 kts 116°
2026-05-05 04:01 23.63270 -76.02465 1679 ft 103 kts 116°
2026-05-05 04:01 23.62943 -76.01773 1696 ft 103 kts 116°
2026-05-05 04:01 23.62619 -76.01090 1707 ft 103 kts 116°
2026-05-05 04:02 23.62288 -76.00393 1706 ft 104 kts 116°
2026-05-05 04:02 23.61967 -75.99718 1689 ft 91 kts 116°
2026-05-05 04:02 23.61674 -75.99104 1679 ft 90 kts 116°
2026-05-05 04:02 23.61385 -75.98496 1680 ft 90 kts 116°
2026-05-05 04:03 23.61101 -75.97884 1693 ft 92 kts 114°
2026-05-05 04:03 23.60808 -75.97231 1746 ft 94 kts 115°
2026-05-05 04:03 23.60521 -75.96571 1783 ft 99 kts 112°
2026-05-05 04:03 23.60222 -75.96004 1774 ft 85 kts 119°
2026-05-05 04:04 23.59929 -75.95437 1768 ft 86 kts 117°
2026-05-05 04:04 23.59651 -75.94859 1770 ft 86 kts 115°
2026-05-05 04:04 23.59409 -75.94280 1760 ft 76 kts 114°
2026-05-05 04:04 23.59175 -75.93842 1557 ft 64 kts 118°
2026-05-05 04:05 23.58948 -75.93443 1314 ft 61 kts 119°
2026-05-05 04:05 23.58699 -75.92969 1139 ft 84 kts 116°
2026-05-05 04:05 23.58446 -75.92491 984 ft 64 kts 118°
2026-05-05 04:05 23.58212 -75.92041 764 ft 86 kts 116°
2026-05-05 04:06 23.57946 -75.91464 755 ft 78 kts 114°
2026-05-05 04:06 23.57690 -75.90887 680 ft 79 kts 113°
2026-05-05 04:06 23.57449 -75.90364 533 ft 77 kts 112°
2026-05-05 04:06 23.57214 -75.89845 393 ft 72 kts 113°
2026-05-05 04:07 23.57005 -75.89370 219 ft 69 kts 112°
2026-05-05 04:07 23.56775 -75.88875 127 ft 64 kts 115°
2026-05-05 04:07 23.56552 -75.88411 56 ft 75 kts 114°
2026-05-05 04:07 23.56343 -75.87973 16 ft 56 kts 113°
2026-05-05 04:08 23.56277 -75.87824 15 ft 10 kts 118°
2026-05-05 04:08 23.56205 -75.87667 15 ft 39 kts 114°
2026-05-05 04:08 23.56143 -75.87508 15 ft 10 kts 77°
2026-05-05 04:08 23.56219 -75.87441 15 ft 14 kts 24°
2026-05-05 04:09 23.56343 -75.87361 15 ft 15 kts 51°
2026-05-05 04:09 23.56355 -75.87329 15 ft 0 kts 82°